[[{"header":{"parameterUnit":"m.s-1","parameterCategory":1,"la1":30.2991,"la2":30.254,"lo1":-89.0895,"lo2":-89.0444,"dy":0.0017,"dx":0.0017,"nx":28,"ny":28,"refTime":"2023-09-14T03:00:00:Z","depth":0,"parameterNumber":2,"parameterNumberName":"U-component_of_WINDS"},"data":[0,0,0,0,0,0,0,0,0,0,0,0,0,0,0,0,0,0,0,0,0,0,0,0,0,0,0,0,0,0,0,0,0,0,0,0,0,0,0,0,0,0,0,0,0,0,0,0,0,0,0,0,0,0,0,0,0,0,0.9186,0.9188,0,0.9394,0.9397,0.9399,0.9452,0.945,0.9449,0.9448,0.9666,0.9673,0.968,0,0,0,0,0,0,0,0,0,0,0,0,0,0.8836,0.8842,0.9185,0.9188,0.9191,0.9394,0.9397,0.94,0.9452,0.945,0.9449,0.9447,0.9664,0.9672,0.9681,0,0,0,0,0,0,0,0,0,0,0,0,0,0.9011,0.8844,0.9185,0.9241,0.9248,0.9393,0.9397,0.94,0.9452,0.945,0.9448,0.9446,0.9661,0.9672,0.9682,0.9787,0,0,0.9715,0.9719,0,0,0,0,0,0,0,0,0.9001,0.9024,0.923,0.9238,0.9246,0.9395,0.9354,0.953,0.9453,0.9375,0.9448,0.9446,0.9578,0.9595,0.9639,0.9798,0.9807,0.9715,0.9722,0.9726,0.9729,0,0,0,0,0,0,0,0.8989,0.9015,0.9268,0.9233,0.9243,0.9257,0.928,0.9387,0.9485,0.9382,0.9386,0.941,0.9582,0.9629,0.9645,0.981,0.9715,0.9725,0.9731,0.9735,1.0064,1.0067,0,0,0,0,0,0,0.8966,0.9005,0.9262,0.9274,0.9116,0.9265,0.929,0.9349,0.9484,0.9503,0.9411,0.9411,0.9612,0.9632,0.9652,0.9784,0.9726,0.9736,0.9742,1.0062,1.0065,1.0068,0,0,0,0,0,0,0.8959,0.8989,0.9253,0.9141,0.9175,0.9273,0.9339,0.9354,0.9401,0.9507,0.9525,0.9441,0.9611,0.9638,0.9753,0.9792,0.9741,0.9751,1.0059,1.0063,1.0066,1.0047,0,0,0,0,0,0,0.8948,0.8986,0.9026,0.9141,0.9181,0.9349,0.9341,0.936,0.9419,0.9421,0.9539,0.9557,0.9611,0.9737,0.9763,0.9806,0.9759,1.0056,1.0061,1.0065,1.0044,1.0049,1.0053,0,0,0,0,0,0.8936,0.9014,0.9028,0.9058,0.9233,0.9351,0.9374,0.9434,0.9421,0.9463,0.9531,0.9553,0.9783,0.9748,0.9778,0.9824,1.0054,1.006,1.0065,1.0042,1.0048,1.0053,0,0,0,0,0,0,0.8903,0.903,0.9047,0.9164,0.9246,0.936,0.9414,0.9438,0.9527,0.9526,0.9598,0.9624,0.9734,0.9791,0.975,0.9933,0.9919,0.993,0.9891,0.9898,0.9902,0.9886,0.9768,0,0,0,0,0,0.8908,0.8992,0.9099,0.9192,0.9232,0.9316,0.937,0.9408,0.9497,0.9532,0.9608,0.9695,0.9786,0.9845,0.9936,1.0053,1.0079,1.01,1.0104,1.0107,1.0116,1.0181,1.0191,1.0085,1.0085,1.0085,0,0,0.8922,0.9002,0.9051,0.9188,0.9256,0.9341,0.9345,0.9436,0.95,0.9547,0.9659,0.9718,0.9819,0.9935,0.999,0.9986,1.0151,1.0114,1.0116,1.0124,1.0188,1.0198,1.0207,1.0089,1.0088,1.0088,0,0,0.8991,0.906,0.9144,0.9212,0.9314,0.9369,0.9389,0.9499,0.9539,0.9652,0.9688,0.9767,0.9924,0.9993,1.005,1.0143,1.0166,1.017,1.0194,1.0256,1.0265,1.0273,1.0305,1.0316,1.0179,1.0179,1.0179,0,0.8996,0.9125,0.9185,0.9274,0.9333,0.9376,0.9462,0.9525,0.9653,0.9693,0.9686,0.9882,0.9953,1.0086,1.0108,1.0152,1.0178,1.0157,1.0258,1.0267,1.0275,1.0307,1.0319,1.0179,1.0179,1.0179,1.0179,0,0.9125,0.9214,0.927,0.9389,0.9455,0.9542,0.9616,0.9675,0.9707,0.9763,0.9878,0.9965,1.0072,1.0107,1.0141,1.0244,1.0238,1.0244,1.0231,1.0284,1.0315,1.0327,1.0179,1.0179,1.0179,1.0179,0,0,0.918,0.9329,0.9349,0.9403,0.9518,0.9589,0.9677,0.9781,0.983,0.9916,0.9992,1.0123,1.0128,1.0192,1.0234,1.0289,1.0355,1.0288,1.0292,1.0297,1.0473,1.0467,1.048,1.0371,1.0374,1.0376,1.0464,0,0.9262,0.942,0.9476,0.9608,0.969,0.9732,0.9809,0.9889,0.9943,1.0022,1.0082,1.0173,1.0174,1.0212,1.0268,1.0335,1.0392,1.033,1.0444,1.0447,1.0416,1.0497,1.0491,1.057,1.0477,1.0479,1.0481,0,0.938,0.9464,0.9603,0.9706,0.9743,0.9811,0.991,0.9984,1.0075,1.0111,1.018,1.0218,1.0313,1.0294,1.0426,1.0383,1.0433,1.0472,1.0477,1.049,1.0466,1.0511,1.0597,1.0608,1.05,1.0499,1.0497,0,0.9404,0.9553,0.9655,0.97,0.9823,0.987,0.9924,1.0013,1.0071,1.0157,1.0196,1.0293,1.0346,1.0421,1.0484,1.0464,1.061,1.0596,1.0642,1.064,1.0671,1.0668,1.0765,1.0704,1.0703,1.0703,1.0703,0,0.9489,0.9572,0.9667,0.9729,0.9823,0.9887,0.9979,1.0036,1.0114,1.0189,1.0232,1.0301,1.038,1.046,1.0511,1.0611,1.0636,1.0667,1.0679,1.0663,1.0659,1.0697,1.0692,1.0706,1.0706,1.0705,1.0705,0,0.9532,0.9599,0.9713,0.9819,0.9848,0.9912,1.0004,1.0067,1.0122,1.0216,1.0242,1.0329,1.0425,1.0495,1.062,1.0654,1.0762,1.0774,1.073,1.0736,1.0777,1.0772,1.0902,1.0922,1.0847,1.0848,1.0848,0,0.9582,0.9647,0.9759,0.9811,0.9864,0.9948,1.0007,1.0073,1.0132,1.0239,1.0289,1.0387,1.047,1.0621,1.0697,1.0792,1.0807,1.0846,1.0822,1.0803,1.0807,1.0801,1.0808,1.0849,1.085,1.085,1.0851,0,0.9663,0.9692,0.9775,0.9868,0.9936,1.0014,1.0092,1.0133,1.0212,1.0277,1.0374,1.0438,1.0564,1.0661,1.0764,1.082,1.0849,1.0857,1.0873,1.0856,1.0827,1.0842,1.0739,1.0854,1.0854,1.0854,1.0853,1.0853,0.9711,0.9769,0.9857,0.9947,1.0012,1.0083,1.0147,1.0209,1.0291,1.0397,1.0431,1.0532,1.0621,1.0761,1.0818,1.0899,1.0898,1.092,1.0926,1.093,1.0928,1.0815,1.0918,1.0918,1.0918,1.0918,1.0918,0,0.9793,0.9851,0.9933,1.0039,1.011,1.0129,1.0216,1.0274,1.0361,1.0441,1.052,1.0631,1.0726,1.0807,1.0905,1.0954,1.0969,1.0977,1.0974,1.0986,1.0925,1.0901,1.0963,1.0963,1.0963,1.0963,1.0963,1.0963,0.9844,0.9943,0.9983,1.0115,1.0173,1.027,1.0318,1.0384,1.0448,1.057,1.0647,1.0699,1.078,1.0883,1.0971,1.0992,1.1026,1.1031,1.1055,1.0996,1.0991,1.0986,1.0964,1.1038,1.1038,1.111,1.1111,1.1112]},{"header":{"parameterUnit":"m.s-1","parameterCategory":1,"la1":30.2991,"la2":30.254,"lo1":-89.0895,"lo2":-89.0444,"dy":0.0017,"dx":0.0017,"nx":28,"ny":28,"refTime":"2023-09-14T03:00:00:Z","depth":0,"parameterNumber":3,"parameterNumberName":"V-component_of_WINDS"},"data":[0,0,0,0,0,0,0,0,0,0,0,0,0,0,0,0,0,0,0,0,0,0,0,0,0,0,0,0,0,0,0,0,0,0,0,0,0,0,0,0,0,0,0,0,0,0,0,0,0,0,0,0,0,0,0,0,0,0,3.0975,3.0975,0,3.0952,3.0952,3.0952,3.0916,3.0915,3.0915,3.0914,3.0888,3.0888,3.0888,0,0,0,0,0,0,0,0,0,0,0,0,0,3.0984,3.0984,3.0975,3.0975,3.0974,3.0952,3.0952,3.0951,3.0916,3.0915,3.0915,3.0914,3.0888,3.0888,3.0888,0,0,0,0,0,0,0,0,0,0,0,0,0,3.0972,3.0984,3.0975,3.0954,3.0952,3.0952,3.0952,3.0951,3.0916,3.0915,3.0914,3.0914,3.0888,3.0888,3.0888,3.0906,0,0,3.0887,3.0887,0,0,0,0,0,0,0,0,3.0973,3.0972,3.0958,3.0956,3.0953,3.0936,3.0945,3.0936,3.0917,3.093,3.0914,3.0913,3.0905,3.0903,3.0901,3.0904,3.0903,3.0887,3.0887,3.0887,3.0887,0,0,0,0,0,0,0,3.0974,3.0973,3.0966,3.0957,3.0955,3.0944,3.0942,3.0943,3.0923,3.0929,3.0926,3.0924,3.0903,3.0901,3.09,3.0903,3.0887,3.0887,3.0887,3.0887,3.0915,3.0916,0,0,0,0,0,0,3.0978,3.0974,3.0967,3.0965,3.0961,3.0945,3.0942,3.0942,3.0923,3.0919,3.0925,3.0922,3.0902,3.09,3.0899,3.0915,3.0887,3.0887,3.0887,3.0915,3.0916,3.0917,0,0,0,0,0,0,3.0978,3.0978,3.0967,3.0969,3.0966,3.0946,3.0947,3.0943,3.094,3.092,3.0915,3.0926,3.0901,3.0899,3.0903,3.0914,3.0887,3.0887,3.0914,3.0915,3.0916,3.095,0,0,0,0,0,0,3.0979,3.0978,3.0986,3.0969,3.0967,3.0974,3.0947,3.0943,3.094,3.0937,3.092,3.0916,3.09,3.0904,3.0903,3.0913,3.0887,3.0913,3.0914,3.0916,3.0948,3.0953,3.0956,0,0,0,0,0,3.0979,3.0997,3.0987,3.0986,3.0976,3.0975,3.0973,3.0955,3.0941,3.0948,3.0934,3.0917,3.0913,3.0905,3.0904,3.0914,3.0912,3.0914,3.0916,3.0946,3.0952,3.0956,0,0,0,0,0,0,3.1015,3.0994,3.0983,3.0996,3.0987,3.0969,3.0977,3.0962,3.0956,3.0953,3.093,3.0926,3.0933,3.0924,3.0915,3.0928,3.091,3.0911,3.0933,3.0938,3.0942,3.0943,3.0886,0,0,0,0,0,3.1025,3.1027,3.1008,3.1021,3.1017,3.0998,3.0997,3.0983,3.0973,3.0969,3.0956,3.0946,3.0942,3.094,3.0935,3.0947,3.0941,3.0953,3.0957,3.0961,3.0962,3.0964,3.0968,3.0923,3.0923,3.0923,0,0,3.1044,3.1033,3.1036,3.1028,3.102,3.102,3.0995,3.0998,3.0997,3.0969,3.0972,3.0962,3.0949,3.0956,3.0958,3.0948,3.0973,3.0963,3.0966,3.0965,3.0966,3.097,3.0974,3.0924,3.0924,3.0924,0,0,3.1079,3.1073,3.1081,3.1073,3.1061,3.1047,3.105,3.1033,3.1025,3.1028,3.1006,3.1004,3.0999,3.0989,3.0984,3.1013,3.0995,3.1012,3.1033,3.1035,3.1039,3.1042,3.1049,3.1052,3.1014,3.1014,3.1014,0,3.1105,3.1106,3.1087,3.109,3.1085,3.1061,3.1067,3.106,3.1047,3.1044,3.1034,3.1025,3.1014,3.1017,3.1024,3.1021,3.1021,3.1013,3.104,3.1043,3.1045,3.1052,3.1055,3.1016,3.1015,3.1015,3.1015,0,3.1136,3.1137,3.1145,3.1132,3.1129,3.1134,3.1114,3.1113,3.1099,3.1086,3.1087,3.1074,3.1064,3.1064,3.1051,3.1064,3.1058,3.1045,3.1025,3.1052,3.1057,3.106,3.1018,3.1018,3.1017,3.1017,0,0,3.1193,3.1169,3.1172,3.1164,3.1148,3.1148,3.1151,3.1142,3.114,3.1131,3.1131,3.1126,3.1112,3.1106,3.1091,3.1093,3.1113,3.1078,3.1078,3.1083,3.1123,3.1132,3.1135,3.1102,3.1102,3.1103,3.1123,0,3.1222,3.1226,3.1208,3.1216,3.1215,3.119,3.1192,3.1181,3.1169,3.1164,3.115,3.1146,3.1129,3.1125,3.1126,3.111,3.112,3.1109,3.1099,3.1099,3.1101,3.1139,3.1149,3.1169,3.1125,3.1126,3.1126,0,3.1257,3.125,3.1258,3.1239,3.1237,3.124,3.1229,3.1226,3.1212,3.1203,3.1195,3.1177,3.1176,3.1159,3.1155,3.1148,3.1143,3.1134,3.1134,3.1131,3.1113,3.1134,3.1175,3.1177,3.113,3.113,3.1129,0,3.1294,3.1287,3.1289,3.1284,3.1263,3.1264,3.1255,3.1241,3.1236,3.1226,3.1222,3.1212,3.1206,3.1198,3.1178,3.1168,3.1175,3.1157,3.1165,3.1165,3.1166,3.1166,3.1204,3.1167,3.1167,3.1167,3.1167,0,3.1327,3.1332,3.1305,3.1307,3.131,3.1289,3.1293,3.1281,3.1268,3.1265,3.1244,3.1241,3.1215,3.1209,3.1193,3.1191,3.1189,3.1179,3.1175,3.118,3.1181,3.1175,3.1172,3.1167,3.1167,3.1167,3.1167,0,3.1368,3.1351,3.1352,3.1331,3.1326,3.1329,3.1311,3.131,3.1296,3.1293,3.129,3.1268,3.1259,3.1238,3.1225,3.1214,3.1214,3.1207,3.1219,3.1216,3.1224,3.1222,3.1258,3.126,3.1223,3.1224,3.1224,0,3.139,3.1392,3.1372,3.1369,3.1361,3.1357,3.1351,3.133,3.1325,3.1308,3.1308,3.1298,3.1289,3.1276,3.1257,3.1246,3.1237,3.125,3.1235,3.1239,3.1234,3.1233,3.1232,3.1252,3.1253,3.1253,3.1254,0,3.1428,3.1419,3.1412,3.1402,3.1397,3.1388,3.1377,3.1376,3.1351,3.1346,3.1337,3.133,3.1315,3.1305,3.129,3.1278,3.1261,3.1259,3.1259,3.1264,3.127,3.1264,3.1226,3.1258,3.1257,3.1257,3.1257,3.1257,3.1457,3.1458,3.1443,3.1436,3.1426,3.1417,3.1414,3.14,3.1392,3.1379,3.1367,3.1358,3.1342,3.132,3.131,3.1302,3.1293,3.1295,3.1295,3.1295,3.1296,3.1273,3.1299,3.1299,3.1299,3.1299,3.1299,0,3.1492,3.1481,3.1475,3.1461,3.1455,3.1441,3.1428,3.1423,3.1417,3.1403,3.1394,3.1383,3.1372,3.1352,3.1339,3.1336,3.1327,3.1333,3.1332,3.1329,3.1306,3.1306,3.134,3.134,3.134,3.134,3.134,3.134,3.1509,3.1508,3.1497,3.149,3.1479,3.1471,3.1465,3.1455,3.1444,3.1433,3.1424,3.1411,3.1394,3.1379,3.1367,3.1362,3.1357,3.1364,3.1356,3.1335,3.1331,3.1327,3.1326,3.1364,3.1364,3.1379,3.1379,3.1379]}]]